MXY5597 KMHT-KPSM

Flight info

Callsign MXY5597
Flight time N/A
Altitude 9000
Route IDEED
Aircraft BCS3/M-SBDE2E3GIRWXY/LB1

Departure

Time 2026-04-11 13:52
Airport Manchester-Boston Regional Airport (KMHT)

Arrival

Time N/A
Airport Portsmouth International Airport at Pease (KPSM)
Time Latitude Longitude Altitude Speed Heading
2026-04-11 13:43 42.92706 -71.43760 236 ft 0 kts 340°
2026-04-11 13:47 42.92702 -71.43758 235 ft 3 kts 338°
2026-04-11 13:47 42.92683 -71.43747 237 ft 3 kts 338°
2026-04-11 13:47 42.92663 -71.43736 237 ft 3 kts 342°
2026-04-11 13:48 42.92653 -71.43723 236 ft 3 kts 246°
2026-04-11 13:48 42.92654 -71.43720 237 ft 0 kts 246°
2026-04-11 13:48 42.92653 -71.43720 237 ft 2 kts 246°
2026-04-11 13:49 42.92599 -71.43892 234 ft 22 kts 246°
2026-04-11 13:49 42.92557 -71.44074 233 ft 19 kts 291°
2026-04-11 13:49 42.92692 -71.44181 238 ft 21 kts 322°
2026-04-11 13:49 42.92760 -71.44410 230 ft 33 kts 287°
2026-04-11 13:50 42.92788 -71.44649 232 ft 26 kts 252°
2026-04-11 13:50 42.92805 -71.44842 226 ft 21 kts 329°
2026-04-11 13:50 42.92924 -71.44786 228 ft 7 kts 44°
2026-04-11 13:50 42.92926 -71.44784 228 ft 0 kts 44°
2026-04-11 13:52 42.93006 -71.44683 226 ft 61 kts 40°
2026-04-11 13:52 42.93592 -71.43961 255 ft 164 kts 41°
2026-04-11 13:52 42.94531 -71.42784 1176 ft 195 kts 42°
2026-04-11 13:52 42.95631 -71.41358 1946 ft 254 kts 44°
2026-04-11 13:53 42.97026 -71.39323 2312 ft 322 kts 49°
2026-04-11 13:53 42.98448 -71.36746 2651 ft 355 kts 56°
2026-04-11 13:53 42.99671 -71.33702 2985 ft 382 kts 65°
2026-04-11 13:53 43.00482 -71.30393 3321 ft 350 kts 77°
2026-04-11 13:54 43.00699 -71.27225 3675 ft 321 kts 92°
2026-04-11 13:54 43.00303 -71.24335 4028 ft 298 kts 110°
2026-04-11 13:54 42.99324 -71.21956 4366 ft 279 kts 130°
2026-04-11 13:54 42.97904 -71.20350 4703 ft 263 kts 152°
2026-04-11 13:55 42.96440 -71.18936 4852 ft 256 kts 127°